Regional Weather Roundup
Issued by NWS

Home | Current Version | Previous Version | Graphics & Text | Print | Product List | Glossary On
Versions: 1 2 3 4 5 6 7 8 9 10 11 12 13 14 15 16 17 18 19 20 21 22 23 24 25 26 27 28 29 30 31 32 33 34 35 36 37 38 39 40 41 42 43 44 45 46 47 48 49 50
000
ASUS43 KFSD 021310
RWRSD

WEATHER ROUNDUP FOR SOUTH DAKOTA
NATIONAL WEATHER SERVICE SIOUX FALLS SD
800 AM CDT MON MAY 02 2016

NOTE: "FAIR" INDICATES FEW OR NO CLOUDS BELOW 12,000 FEET WITH NO
SIGNIFICANT WEATHER AND/OR OBSTRUCTIONS TO VISIBILITY.


SDZ001>005-009-010-012>017-021400-
NORTHWEST AND NORTH CENTRAL SOUTH DAKOTA

CITY           SKY/WX    TMP DP  RH WIND       PRES   REMARKS
BUFFALO          N/A     42  33  70 W8        30.07R
FAITH            N/A     44  32  62 W10       30.10S
MOBRIDGE       MOSUNNY   46  38  73 S5        30.05F
$$

SDZ012>016-024>037-041>051-057-063-072>074-021400-
SOUTHWEST AND SOUTH CENTRAL SOUTH DAKOTA

CITY           SKY/WX    TMP DP  RH WIND       PRES   REMARKS
RAPID CTY ARPT SUNNY     42  32  67 W7        30.14F
PIERRE         CLOUDY    40  34  79 SW13      30.10F
CUSTER         SUNNY     35  25  66 NW5       30.17F
ELLSWORTH AFB  MOSUNNY   42  33  69 W8        30.14F
PHILIP         PTSUNNY   38  33  82 W10       30.14S
PINE RIDGE     SUNNY     29  26  89 CALM      30.18S
WINNER         FAIR      44  35  70 SW5       30.15S
$$

SDZ004>011-016>023-039-040-021400-
NORTHEAST SOUTH DAKOTA

CITY           SKY/WX    TMP DP  RH WIND       PRES   REMARKS
ABERDEEN       CLOUDY    41  35  79 S3        30.10S
WATERTOWN      MOSUNNY   41  35  79 CALM      30.11S
BROOKINGS      SUNNY     40  36  86 MISG      30.12R
SISSETON         N/A     51  34  52 W10       30.07S
$$

SDZ017-020-022-023-036>040-048>070-021400-
SOUTHEAST SOUTH DAKOTA

CITY           SKY/WX    TMP DP  RH WIND       PRES   REMARKS
SIOUX FALLS    MOSUNNY   41  38  89 CALM      30.13F
HURON          CLOUDY    43  36  76 CALM      30.12R
CHAMBERLAIN    MOSUNNY   42  38  86 W6        30.14S
MITCHELL       CLOUDY    44  37  76 W5        30.14S
YANKTON        SUNNY     43  37  81 CALM      30.15S
$$

ABBREVIATIONS USED IN REMARKS
   TC - TEMPERATURE IN CELSIUS
  WCI - WIND CHILL INDEX
   HX - HEAT INDEX
  VSB - VISIBILITY





USA.gov is the U.S. government's official web portal to all federal, state and local government web resources and services.